Year,Month,Day,Hour,Minute,Value (Times are PST for temperature in C)
2016,06,17,00,00,8.10
2016,06,17,00,01,8.00
2016,06,17,00,02,8.00
2016,06,17,00,03,8.00
2016,06,17,00,04,8.00
2016,06,17,00,05,8.00
2016,06,17,00,06,8.00
2016,06,17,00,07,7.90
2016,06,17,00,08,7.90
2016,06,17,00,09,7.90
2016,06,17,00,10,7.90
2016,06,17,00,11,7.90
2016,06,17,00,12,7.90
2016,06,17,00,17,7.90
2016,06,17,00,18,7.90
2016,06,17,00,19,7.90
2016,06,17,00,20,7.90
2016,06,17,00,21,7.80
2016,06,17,00,22,7.80
2016,06,17,00,23,7.70
2016,06,17,00,24,7.70
2016,06,17,00,25,7.70
2016,06,17,00,26,7.70
2016,06,17,00,27,7.70
2016,06,17,00,28,7.70
2016,06,17,00,29,7.70
2016,06,17,00,30,7.60
2016,06,17,00,31,7.60
2016,06,17,00,32,7.60
2016,06,17,00,33,7.60
2016,06,17,00,34,7.60
2016,06,17,00,35,7.60
2016,06,17,00,36,7.60
2016,06,17,00,37,7.60
2016,06,17,00,38,7.60
2016,06,17,00,39,7.60
2016,06,17,00,40,7.60
2016,06,17,00,41,7.60
2016,06,17,00,42,7.50
2016,06,17,00,43,7.50
2016,06,17,00,44,7.50
2016,06,17,00,45,7.50
2016,06,17,00,46,7.40
2016,06,17,00,47,7.40
2016,06,17,00,48,7.40
2016,06,17,00,49,7.40
2016,06,17,00,50,7.30
2016,06,17,00,51,7.30
2016,06,17,00,52,7.30
2016,06,17,00,53,7.30
2016,06,17,00,54,7.30
2016,06,17,00,55,7.30
2016,06,17,00,56,7.20
2016,06,17,00,57,7.20
2016,06,17,00,58,7.20
2016,06,17,00,59,7.20
2016,06,17,01,00,7.20
2016,06,17,01,01,7.20
2016,06,17,01,02,7.20
2016,06,17,01,03,7.20
2016,06,17,01,04,7.20
2016,06,17,01,05,7.20
2016,06,17,01,06,7.20
2016,06,17,01,07,7.20
2016,06,17,01,08,7.20
2016,06,17,01,09,7.20
2016,06,17,01,10,7.20
2016,06,17,01,11,7.10
2016,06,17,01,12,7.10
2016,06,17,01,13,7.10
2016,06,17,01,14,7.10
2016,06,17,01,15,7.10
2016,06,17,01,16,7.00
2016,06,17,01,17,7.00
2016,06,17,01,18,7.00
2016,06,17,01,19,6.90
2016,06,17,01,20,6.90
2016,06,17,01,21,6.90
2016,06,17,01,22,6.90
2016,06,17,01,23,6.90
2016,06,17,01,24,6.90
2016,06,17,01,25,6.80
2016,06,17,01,26,6.80
2016,06,17,01,27,6.80
2016,06,17,01,28,6.80
2016,06,17,01,29,6.80
2016,06,17,01,30,6.70
2016,06,17,01,31,6.70
2016,06,17,01,32,6.70
2016,06,17,01,33,6.60
2016,06,17,01,34,6.60
2016,06,17,01,35,6.60
2016,06,17,01,36,6.50
2016,06,17,01,37,6.50
2016,06,17,01,38,6.50
2016,06,17,01,39,6.40
2016,06,17,01,40,6.40
2016,06,17,01,41,6.40
2016,06,17,01,42,6.30
2016,06,17,01,43,6.30
2016,06,17,01,44,6.30
2016,06,17,01,45,6.30
2016,06,17,01,46,6.30
2016,06,17,01,47,6.30
2016,06,17,01,48,6.30
2016,06,17,01,49,6.30
2016,06,17,01,50,6.30
2016,06,17,01,51,6.30
2016,06,17,01,52,6.30
2016,06,17,01,53,6.30
2016,06,17,01,54,6.30
2016,06,17,01,55,6.30
2016,06,17,01,56,6.30
2016,06,17,01,57,6.30
2016,06,17,01,58,6.20
2016,06,17,01,59,6.20
2016,06,17,02,00,6.20
2016,06,17,02,01,6.20
2016,06,17,02,02,6.10
2016,06,17,02,03,6.10
2016,06,17,02,04,6.10
2016,06,17,02,05,6.10
2016,06,17,02,06,6.10
2016,06,17,02,07,6.10
2016,06,17,02,08,6.10
2016,06,17,02,09,6.10
2016,06,17,02,10,6.10
2016,06,17,02,11,6.20
2016,06,17,02,12,6.20
2016,06,17,02,13,6.20
2016,06,17,02,14,6.20
2016,06,17,02,15,6.20
2016,06,17,02,16,6.20
2016,06,17,02,17,6.10
2016,06,17,02,18,6.10
2016,06,17,02,19,6.10
2016,06,17,02,20,6.10
2016,06,17,02,21,6.10
2016,06,17,02,22,6.10
2016,06,17,02,23,6.10
2016,06,17,02,24,6.00
2016,06,17,02,25,6.00
2016,06,17,02,26,6.00
2016,06,17,02,27,6.00
2016,06,17,02,28,6.00
2016,06,17,02,29,6.00
2016,06,17,02,30,5.90
2016,06,17,02,31,6.00
2016,06,17,02,32,5.90
2016,06,17,02,33,5.90
2016,06,17,02,34,5.90
2016,06,17,02,35,5.90
2016,06,17,02,36,5.90
2016,06,17,02,37,5.90
2016,06,17,02,38,5.80
2016,06,17,02,39,5.80
2016,06,17,02,40,5.80
2016,06,17,02,41,5.80
2016,06,17,02,42,5.80
2016,06,17,02,43,5.70
2016,06,17,02,44,5.70
2016,06,17,02,45,5.70
2016,06,17,02,46,5.70
2016,06,17,02,47,5.70
2016,06,17,02,48,5.70
2016,06,17,02,49,5.60
2016,06,17,02,50,5.60
2016,06,17,02,51,5.60
2016,06,17,02,52,5.60
2016,06,17,02,53,5.60
2016,06,17,02,54,5.60
2016,06,17,02,55,5.60
2016,06,17,02,56,5.60
2016,06,17,02,57,5.50
2016,06,17,02,58,5.50
2016,06,17,02,59,5.50
2016,06,17,03,00,5.50
2016,06,17,03,01,5.50
2016,06,17,03,02,5.50
2016,06,17,03,03,5.40
2016,06,17,03,04,5.40
2016,06,17,03,05,5.40
2016,06,17,03,06,5.40
2016,06,17,03,07,5.40
2016,06,17,03,08,5.40
2016,06,17,03,09,5.40
2016,06,17,03,10,5.40
2016,06,17,03,11,5.40
2016,06,17,03,12,5.40
2016,06,17,03,13,5.30
2016,06,17,03,14,5.40
2016,06,17,03,15,5.40
2016,06,17,03,16,5.40
2016,06,17,03,17,5.40
2016,06,17,03,18,5.40
2016,06,17,03,19,5.40
2016,06,17,03,20,5.40
2016,06,17,03,21,5.40
2016,06,17,03,22,5.40
2016,06,17,03,23,5.40
2016,06,17,03,24,5.40
2016,06,17,03,25,5.30
2016,06,17,03,26,5.30
2016,06,17,03,27,5.30
2016,06,17,03,28,5.30
2016,06,17,03,29,5.30
2016,06,17,03,30,5.30
2016,06,17,03,31,5.30
2016,06,17,03,32,5.30
2016,06,17,03,33,5.30
2016,06,17,03,34,5.30
2016,06,17,03,35,5.30
2016,06,17,03,36,5.30
2016,06,17,03,37,5.30
2016,06,17,03,38,5.20
2016,06,17,03,39,5.20
2016,06,17,03,40,5.20
2016,06,17,03,41,5.20
2016,06,17,03,42,5.20
2016,06,17,03,43,5.20
2016,06,17,03,44,5.20
2016,06,17,03,45,5.20
2016,06,17,03,46,5.20
2016,06,17,03,47,5.20
2016,06,17,03,48,5.20
2016,06,17,03,49,5.20
2016,06,17,03,50,5.20
2016,06,17,03,51,5.20
2016,06,17,03,52,5.20
2016,06,17,03,53,5.20
2016,06,17,03,54,5.20
2016,06,17,03,55,5.20
2016,06,17,03,56,5.10
2016,06,17,03,57,5.10
2016,06,17,03,58,5.10
2016,06,17,03,59,5.10
2016,06,17,04,00,5.10
2016,06,17,04,01,5.20
2016,06,17,04,02,5.20
2016,06,17,04,03,5.20
2016,06,17,04,04,5.20
2016,06,17,04,05,5.10
2016,06,17,04,06,5.10
2016,06,17,04,07,5.10
2016,06,17,04,08,5.10
2016,06,17,04,09,5.10
2016,06,17,04,10,5.10
2016,06,17,04,11,5.00
2016,06,17,04,12,5.00
2016,06,17,04,13,5.00
2016,06,17,04,14,5.00
2016,06,17,04,15,4.90
2016,06,17,04,16,4.90
2016,06,17,04,17,4.90
2016,06,17,04,18,4.90
2016,06,17,04,19,4.90
2016,06,17,04,20,4.90
2016,06,17,04,21,4.90
2016,06,17,04,22,4.90
2016,06,17,04,23,4.90
2016,06,17,04,24,4.90
2016,06,17,04,25,4.90
2016,06,17,04,26,4.90
2016,06,17,04,27,5.00
2016,06,17,04,28,5.00
2016,06,17,04,29,5.00
2016,06,17,04,30,5.00
2016,06,17,04,31,5.00
2016,06,17,04,32,5.00
2016,06,17,04,33,5.00
2016,06,17,04,34,5.00
2016,06,17,04,35,5.00
2016,06,17,04,36,5.00
2016,06,17,04,37,5.00
2016,06,17,04,38,5.00
2016,06,17,04,39,4.90
2016,06,17,04,40,4.90
2016,06,17,04,41,4.90
2016,06,17,04,42,4.90
2016,06,17,04,43,4.90
2016,06,17,04,44,4.90
2016,06,17,04,45,4.90
2016,06,17,04,46,4.80
2016,06,17,04,47,4.80
2016,06,17,04,48,4.80
2016,06,17,04,49,4.80
2016,06,17,04,50,4.80
2016,06,17,04,51,4.70
2016,06,17,04,52,4.70
2016,06,17,04,53,4.70
2016,06,17,04,54,4.70
2016,06,17,04,55,4.70
2016,06,17,04,56,4.70
2016,06,17,04,57,4.70
2016,06,17,04,58,4.70
2016,06,17,04,59,4.70
2016,06,17,05,00,4.60
2016,06,17,05,01,4.60
2016,06,17,05,02,4.60
2016,06,17,05,03,4.60
2016,06,17,05,04,4.60
2016,06,17,05,05,4.50
2016,06,17,05,06,4.50
2016,06,17,05,07,4.50
2016,06,17,05,08,4.40
2016,06,17,05,09,4.40
2016,06,17,05,10,4.40
2016,06,17,05,11,4.40
2016,06,17,05,12,4.40
2016,06,17,05,13,4.40
2016,06,17,05,14,4.40
2016,06,17,05,15,4.40
2016,06,17,05,16,4.40
2016,06,17,05,17,4.40
2016,06,17,05,18,4.40
2016,06,17,05,19,4.40
2016,06,17,05,20,4.40
2016,06,17,05,21,4.40
2016,06,17,05,22,4.40
2016,06,17,05,23,4.40
2016,06,17,05,24,4.40
2016,06,17,05,25,4.40
2016,06,17,05,26,4.40
2016,06,17,05,27,4.50
2016,06,17,05,28,4.50
2016,06,17,05,29,4.50
2016,06,17,05,30,4.50
2016,06,17,05,31,4.50
2016,06,17,05,32,4.50
2016,06,17,05,33,4.50
2016,06,17,05,34,4.50
2016,06,17,05,35,4.50
2016,06,17,05,36,4.50
2016,06,17,05,37,4.40
2016,06,17,05,38,4.50
2016,06,17,05,39,4.50
2016,06,17,05,40,4.40
2016,06,17,05,41,4.50
2016,06,17,05,42,4.40
2016,06,17,05,43,4.40
2016,06,17,05,44,4.40
2016,06,17,05,45,4.40
2016,06,17,05,46,4.40
2016,06,17,05,47,4.40
2016,06,17,05,48,4.40
2016,06,17,05,49,4.40
2016,06,17,05,50,4.40
2016,06,17,05,51,4.40
2016,06,17,05,52,4.40
2016,06,17,05,53,4.40
2016,06,17,05,54,4.40
2016,06,17,05,55,4.40
2016,06,17,05,56,4.40
2016,06,17,05,57,4.40
2016,06,17,05,58,4.40
2016,06,17,05,59,4.50
2016,06,17,06,00,4.50
2016,06,17,06,01,4.50
2016,06,17,06,02,4.50
2016,06,17,06,03,4.50
2016,06,17,06,04,4.50
2016,06,17,06,05,4.50
2016,06,17,06,06,4.60
2016,06,17,06,07,4.60
2016,06,17,06,08,4.60
2016,06,17,06,09,4.60
2016,06,17,06,10,4.60
2016,06,17,06,11,4.60
2016,06,17,06,12,4.60
2016,06,17,06,13,4.60
2016,06,17,06,14,4.60
2016,06,17,06,15,4.70
2016,06,17,06,16,4.70
2016,06,17,06,17,4.70
2016,06,17,06,18,4.70
2016,06,17,06,19,4.70
2016,06,17,06,20,4.80
2016,06,17,06,21,4.80
2016,06,17,06,22,4.80
2016,06,17,06,23,4.80
2016,06,17,06,24,4.80
2016,06,17,06,25,4.90
2016,06,17,06,26,4.90
2016,06,17,06,27,4.90
2016,06,17,06,28,4.90
2016,06,17,06,29,4.90
2016,06,17,06,30,5.00
2016,06,17,06,31,5.00
2016,06,17,06,32,5.10
2016,06,17,06,33,5.10
2016,06,17,06,34,5.20
2016,06,17,06,35,5.20
2016,06,17,06,36,5.30
2016,06,17,06,37,5.40
2016,06,17,06,38,5.40
2016,06,17,06,39,5.50
2016,06,17,06,40,5.60
2016,06,17,06,41,5.70
2016,06,17,06,42,5.80
2016,06,17,06,43,5.90
2016,06,17,06,44,5.90
2016,06,17,06,45,6.00
2016,06,17,06,46,6.10
2016,06,17,06,47,6.10
2016,06,17,06,48,6.20
2016,06,17,06,49,6.20
2016,06,17,06,50,6.30
2016,06,17,06,51,6.30
2016,06,17,06,52,6.40
2016,06,17,06,53,6.40
2016,06,17,06,54,6.50
2016,06,17,06,55,6.50
2016,06,17,06,56,6.70
2016,06,17,06,57,6.70
2016,06,17,06,58,6.80
2016,06,17,06,59,6.90
2016,06,17,07,00,7.00
2016,06,17,07,01,7.10
2016,06,17,07,02,7.20
2016,06,17,07,03,7.20
2016,06,17,07,04,7.30
2016,06,17,07,05,7.30
2016,06,17,07,06,7.30
2016,06,17,07,07,7.30
2016,06,17,07,08,7.30
2016,06,17,07,09,7.40
2016,06,17,07,10,7.40
2016,06,17,07,11,7.50
2016,06,17,07,12,7.60
2016,06,17,07,13,7.70
2016,06,17,07,14,7.80
2016,06,17,07,15,7.80
2016,06,17,07,16,7.80
2016,06,17,07,17,7.90
2016,06,17,07,18,7.90
2016,06,17,07,19,8.00
2016,06,17,07,20,8.00
2016,06,17,07,21,8.10
2016,06,17,07,22,8.10
2016,06,17,07,23,8.20
2016,06,17,07,24,8.30
2016,06,17,07,25,8.30
2016,06,17,07,26,8.30
2016,06,17,07,27,8.40
2016,06,17,07,28,8.40
2016,06,17,07,29,8.50
2016,06,17,07,30,8.50
2016,06,17,07,31,8.60
2016,06,17,07,32,8.70
2016,06,17,07,33,8.80
2016,06,17,07,34,8.90
2016,06,17,07,35,9.00
2016,06,17,07,36,9.10
2016,06,17,07,37,9.10
2016,06,17,07,38,9.10
2016,06,17,07,39,9.20
2016,06,17,07,40,9.20
2016,06,17,07,41,9.30
2016,06,17,07,42,9.20
2016,06,17,07,43,9.30
2016,06,17,07,44,9.30
2016,06,17,07,45,9.40
2016,06,17,07,46,9.40
2016,06,17,07,47,9.50
2016,06,17,07,48,9.60
2016,06,17,07,49,9.70
2016,06,17,07,50,9.70
2016,06,17,07,51,9.70
2016,06,17,07,52,9.70
2016,06,17,07,53,9.70
2016,06,17,07,54,9.80
2016,06,17,07,55,9.80
2016,06,17,07,56,9.90
2016,06,17,07,57,9.90
2016,06,17,07,58,10.00
2016,06,17,07,59,10.00
2016,06,17,08,00,10.10
2016,06,17,08,01,10.10
2016,06,17,08,02,10.20
2016,06,17,08,03,10.20
2016,06,17,08,04,10.30
2016,06,17,08,05,10.30
2016,06,17,08,06,10.40
2016,06,17,08,07,10.40
2016,06,17,08,08,10.50
2016,06,17,08,09,10.50
2016,06,17,08,10,10.60
2016,06,17,08,11,10.60
2016,06,17,08,12,10.60
2016,06,17,08,13,10.60
2016,06,17,08,14,10.70
2016,06,17,08,15,10.70
2016,06,17,08,16,10.70
2016,06,17,08,17,10.70
2016,06,17,08,18,10.80
2016,06,17,08,19,10.80
2016,06,17,08,20,10.90
2016,06,17,08,21,10.90
2016,06,17,08,22,10.90
2016,06,17,08,23,10.90
2016,06,17,08,24,11.10
2016,06,17,08,25,11.20
2016,06,17,08,26,11.30
2016,06,17,08,27,11.30
2016,06,17,08,28,11.40
2016,06,17,08,29,11.40
2016,06,17,08,30,11.50
2016,06,17,08,31,11.40
2016,06,17,08,32,11.50
2016,06,17,08,33,11.50
2016,06,17,08,34,11.50
2016,06,17,08,35,11.50
2016,06,17,08,36,11.60
2016,06,17,08,37,11.60
2016,06,17,08,38,11.60
2016,06,17,08,39,11.70
2016,06,17,08,40,11.70
2016,06,17,08,41,11.80
2016,06,17,08,42,11.90
2016,06,17,08,43,12.00
2016,06,17,08,44,12.10
2016,06,17,08,45,12.20
2016,06,17,08,46,12.30
2016,06,17,08,47,12.40
2016,06,17,08,48,12.50
2016,06,17,08,49,12.60
2016,06,17,08,50,12.70
2016,06,17,08,51,12.70
2016,06,17,08,52,12.80
2016,06,17,08,53,13.00
2016,06,17,08,54,13.10
2016,06,17,08,55,13.20
2016,06,17,08,56,13.30
2016,06,17,08,57,13.40
2016,06,17,08,58,13.50
2016,06,17,08,59,13.50
2016,06,17,09,00,13.60
2016,06,17,09,01,13.60
2016,06,17,09,02,13.60
2016,06,17,09,03,13.70
2016,06,17,09,04,13.70
2016,06,17,09,05,13.80
2016,06,17,09,06,13.90
2016,06,17,09,07,14.00
2016,06,17,09,08,14.00
2016,06,17,09,09,14.10
2016,06,17,09,10,14.20
2016,06,17,09,11,14.30
2016,06,17,09,12,14.40
2016,06,17,09,13,14.40
2016,06,17,09,14,14.40
2016,06,17,09,15,14.50
2016,06,17,09,16,14.60
2016,06,17,09,17,14.50
2016,06,17,09,18,14.60
2016,06,17,09,19,14.60
2016,06,17,09,20,14.60
2016,06,17,09,21,14.70
2016,06,17,09,22,14.70
2016,06,17,09,23,14.70
2016,06,17,09,24,14.80
2016,06,17,09,25,14.80
2016,06,17,09,26,14.90
2016,06,17,09,27,15.00
2016,06,17,09,28,15.10
2016,06,17,09,29,15.20
2016,06,17,09,30,15.30
2016,06,17,09,31,15.40
2016,06,17,09,32,15.40
2016,06,17,09,33,15.50
2016,06,17,09,34,15.40
2016,06,17,09,35,15.40
2016,06,17,09,36,15.50
2016,06,17,09,37,15.50
2016,06,17,09,38,15.50
2016,06,17,09,39,15.50
2016,06,17,09,40,15.60
2016,06,17,09,41,15.60
2016,06,17,09,42,15.70
2016,06,17,09,43,15.70
2016,06,17,09,44,15.70
2016,06,17,09,45,15.80
2016,06,17,09,46,15.80
2016,06,17,09,47,15.90
2016,06,17,09,48,15.90
2016,06,17,09,49,15.90
2016,06,17,09,50,16.00
2016,06,17,09,51,15.90
2016,06,17,09,52,15.80
2016,06,17,09,53,15.70
2016,06,17,09,54,15.70
2016,06,17,09,55,15.70
2016,06,17,09,56,15.80
2016,06,17,09,57,15.90
2016,06,17,09,58,15.90
2016,06,17,09,59,16.00
2016,06,17,10,00,16.10
2016,06,17,10,01,16.20
2016,06,17,10,02,16.30
2016,06,17,10,03,16.30
2016,06,17,10,04,16.50
2016,06,17,10,05,16.60
2016,06,17,10,06,16.70
2016,06,17,10,07,16.80
2016,06,17,10,08,16.80
2016,06,17,10,09,16.60
2016,06,17,10,10,16.40
2016,06,17,10,11,16.40
2016,06,17,10,12,16.30
2016,06,17,10,13,16.20
2016,06,17,10,14,16.20
2016,06,17,10,15,16.10
2016,06,17,10,16,16.10
2016,06,17,10,17,16.00
2016,06,17,10,18,15.90
2016,06,17,10,19,15.80
2016,06,17,10,20,15.60
2016,06,17,10,21,15.50
2016,06,17,10,22,15.40
2016,06,17,10,23,15.40
2016,06,17,10,24,15.30
2016,06,17,10,25,15.30
2016,06,17,10,26,15.30
2016,06,17,10,27,15.20
2016,06,17,10,28,15.20
2016,06,17,10,29,15.20
2016,06,17,10,30,15.20
2016,06,17,10,31,15.20
2016,06,17,10,32,15.20
2016,06,17,10,33,15.20
2016,06,17,10,34,15.20
2016,06,17,10,35,15.30
2016,06,17,10,36,15.30
2016,06,17,10,37,15.40
2016,06,17,10,38,15.40
2016,06,17,10,39,15.50
2016,06,17,10,40,15.60
2016,06,17,10,41,15.50
2016,06,17,10,42,15.50
2016,06,17,10,43,15.50
2016,06,17,10,44,15.50
2016,06,17,10,45,15.50
2016,06,17,10,46,15.50
2016,06,17,10,47,15.60
2016,06,17,10,48,15.60
2016,06,17,10,49,15.50
2016,06,17,10,50,15.40
2016,06,17,10,51,15.30
2016,06,17,10,52,15.30
2016,06,17,10,53,15.30
2016,06,17,10,54,15.30
2016,06,17,10,55,15.30
2016,06,17,10,56,15.20
2016,06,17,10,57,15.20
2016,06,17,10,58,15.20
2016,06,17,10,59,15.30
2016,06,17,11,00,15.30
2016,06,17,11,01,15.40
2016,06,17,11,02,15.50
2016,06,17,11,03,15.60
2016,06,17,11,04,15.80
2016,06,17,11,05,15.80
2016,06,17,11,06,15.80
2016,06,17,11,07,15.90
2016,06,17,11,08,15.90
2016,06,17,11,09,16.00
2016,06,17,11,10,16.00
2016,06,17,11,11,15.90
2016,06,17,11,12,15.70
2016,06,17,11,13,15.60
2016,06,17,11,14,15.60
2016,06,17,11,15,15.70
2016,06,17,11,16,15.60
2016,06,17,11,17,15.60
2016,06,17,11,18,15.50
2016,06,17,11,19,15.40
2016,06,17,11,20,15.50
2016,06,17,11,21,15.60
2016,06,17,11,22,15.70
2016,06,17,11,23,15.70
2016,06,17,11,24,15.70
2016,06,17,11,25,15.70
2016,06,17,11,26,15.80
2016,06,17,11,27,15.80
2016,06,17,11,28,15.80
2016,06,17,11,29,15.80
2016,06,17,11,30,15.80
2016,06,17,11,31,15.80
2016,06,17,11,32,15.80
2016,06,17,11,33,15.70
2016,06,17,11,34,15.60
2016,06,17,11,35,15.50
2016,06,17,11,36,15.40
2016,06,17,11,37,15.30
2016,06,17,11,38,15.40
2016,06,17,11,39,15.40
2016,06,17,11,40,15.50
2016,06,17,11,41,15.50
2016,06,17,11,42,15.60
2016,06,17,11,43,15.70
2016,06,17,11,44,15.80
2016,06,17,11,45,15.80
2016,06,17,11,46,15.80
2016,06,17,11,47,15.80
2016,06,17,11,48,15.80
2016,06,17,11,49,15.90
2016,06,17,11,50,15.90
2016,06,17,11,51,16.00
2016,06,17,11,52,16.20
2016,06,17,11,53,16.40
2016,06,17,11,54,16.50
2016,06,17,11,55,16.60
2016,06,17,11,56,16.70
2016,06,17,11,57,16.80
2016,06,17,11,58,16.90
2016,06,17,11,59,17.00
2016,06,17,12,00,17.10
2016,06,17,12,01,17.10
2016,06,17,12,02,17.00
2016,06,17,12,03,16.90
2016,06,17,12,04,16.80
2016,06,17,12,05,16.70
2016,06,17,12,06,16.60
2016,06,17,12,07,16.40
2016,06,17,12,08,16.40
2016,06,17,12,09,16.50
2016,06,17,12,10,16.50
2016,06,17,12,11,16.40
2016,06,17,12,12,16.30
2016,06,17,12,13,16.40
2016,06,17,12,14,16.50
2016,06,17,12,15,16.60
2016,06,17,12,16,16.80
2016,06,17,12,17,16.90
2016,06,17,12,18,16.90
2016,06,17,12,19,17.00
2016,06,17,12,20,17.20
2016,06,17,12,21,17.30
2016,06,17,12,22,17.30
2016,06,17,12,23,17.30
2016,06,17,12,24,17.30
2016,06,17,12,25,17.30
2016,06,17,12,26,17.30
2016,06,17,12,27,17.20
2016,06,17,12,28,17.20
2016,06,17,12,29,17.10
2016,06,17,12,30,17.10
2016,06,17,12,31,17.00
2016,06,17,12,32,16.80
2016,06,17,12,33,16.60
2016,06,17,12,34,16.50
2016,06,17,12,35,16.50
2016,06,17,12,36,16.50
2016,06,17,12,37,16.40
2016,06,17,12,38,16.40
2016,06,17,12,39,16.40
2016,06,17,12,40,16.40
2016,06,17,12,41,16.50
2016,06,17,12,42,16.50
2016,06,17,12,43,16.40
2016,06,17,12,44,16.40
2016,06,17,12,45,16.40
2016,06,17,12,46,16.40
2016,06,17,12,47,16.50
2016,06,17,12,48,16.50
2016,06,17,12,49,16.50
2016,06,17,12,50,16.60
2016,06,17,12,51,16.70
2016,06,17,12,52,16.90
2016,06,17,12,53,17.00
2016,06,17,12,54,17.10
2016,06,17,12,55,17.10
2016,06,17,12,56,17.10
2016,06,17,12,57,17.10
2016,06,17,12,58,17.10
2016,06,17,12,59,17.00
2016,06,17,13,00,17.00
2016,06,17,13,01,17.00
2016,06,17,13,02,16.90
2016,06,17,13,03,16.90
2016,06,17,13,04,17.00
2016,06,17,13,05,17.10
2016,06,17,13,06,17.20
2016,06,17,13,07,17.30
2016,06,17,13,08,17.40
2016,06,17,13,09,17.40
2016,06,17,13,10,17.40
2016,06,17,13,11,17.30
2016,06,17,13,12,17.10
2016,06,17,13,13,16.90
2016,06,17,13,14,16.70
2016,06,17,13,15,16.70
2016,06,17,13,16,16.60
2016,06,17,13,17,16.60
2016,06,17,13,18,16.70
2016,06,17,13,19,16.70
2016,06,17,13,20,16.70
2016,06,17,13,21,16.80
2016,06,17,13,22,16.80
2016,06,17,13,23,16.80
2016,06,17,13,24,16.80
2016,06,17,13,25,16.80
2016,06,17,13,26,16.80
2016,06,17,13,27,16.90
2016,06,17,13,28,17.00
2016,06,17,13,29,17.20
2016,06,17,13,30,17.20
2016,06,17,13,31,17.30
2016,06,17,13,32,17.30
2016,06,17,13,33,17.30
2016,06,17,13,34,17.30
2016,06,17,13,35,17.40
2016,06,17,13,36,17.40
2016,06,17,13,37,17.40
2016,06,17,13,38,17.50
2016,06,17,13,39,17.50
2016,06,17,13,40,17.60
2016,06,17,13,41,17.60
2016,06,17,13,42,17.70
2016,06,17,13,43,17.70
2016,06,17,13,44,17.80
2016,06,17,13,45,17.80
2016,06,17,13,46,17.80
2016,06,17,13,47,17.70
2016,06,17,13,48,17.60
2016,06,17,13,49,17.50
2016,06,17,13,50,17.40
2016,06,17,13,51,17.30
2016,06,17,13,52,17.40
2016,06,17,13,53,17.40
2016,06,17,13,54,17.40
2016,06,17,13,55,17.50
2016,06,17,13,56,17.60
2016,06,17,13,57,17.50
2016,06,17,13,58,17.50
2016,06,17,13,59,17.50
2016,06,17,14,00,17.60
2016,06,17,14,01,17.70
2016,06,17,14,02,17.70
2016,06,17,14,03,17.80
2016,06,17,14,04,17.80
2016,06,17,14,05,17.80
2016,06,17,14,06,17.80
2016,06,17,14,07,17.80
2016,06,17,14,08,17.80
2016,06,17,14,09,17.80
2016,06,17,14,10,17.90
2016,06,17,14,11,17.90
2016,06,17,14,12,17.90
2016,06,17,14,13,17.90
2016,06,17,14,14,17.90
2016,06,17,14,15,17.90
2016,06,17,14,16,18.00
2016,06,17,14,17,18.00
2016,06,17,14,18,18.00
2016,06,17,14,19,18.00
2016,06,17,14,20,17.90
2016,06,17,14,21,17.90
2016,06,17,14,22,17.90
2016,06,17,14,23,17.80
2016,06,17,14,24,17.70
2016,06,17,14,25,17.60
2016,06,17,14,26,17.60
2016,06,17,14,27,17.60
2016,06,17,14,28,17.60
2016,06,17,14,29,17.70
2016,06,17,14,30,17.70
2016,06,17,14,31,17.70
2016,06,17,14,32,17.70
2016,06,17,14,33,17.70
2016,06,17,14,34,17.70
2016,06,17,14,35,17.70
2016,06,17,14,36,17.70
2016,06,17,14,37,17.70
2016,06,17,14,38,17.80
2016,06,17,14,39,17.80
2016,06,17,14,40,17.70
2016,06,17,14,41,17.70
2016,06,17,14,42,17.70
2016,06,17,14,43,17.80
2016,06,17,14,44,17.80
2016,06,17,14,45,17.90
2016,06,17,14,46,18.00
2016,06,17,14,47,18.10
2016,06,17,14,48,18.20
2016,06,17,14,49,18.20
2016,06,17,14,50,18.30
2016,06,17,14,51,18.40
2016,06,17,14,52,18.40
2016,06,17,14,53,18.50
2016,06,17,14,54,18.50
2016,06,17,14,55,18.50
2016,06,17,14,56,18.50
2016,06,17,14,57,18.70
2016,06,17,14,58,18.70
2016,06,17,14,59,18.70
2016,06,17,15,00,18.60
2016,06,17,15,01,18.60
2016,06,17,15,02,18.60
2016,06,17,15,03,18.70
2016,06,17,15,04,18.80
2016,06,17,15,05,19.00
2016,06,17,15,06,19.10
2016,06,17,15,07,19.10
2016,06,17,15,08,19.20
2016,06,17,15,09,19.10
2016,06,17,15,10,19.10
2016,06,17,15,11,19.00
2016,06,17,15,12,18.90
2016,06,17,15,13,18.90
2016,06,17,15,14,18.80
2016,06,17,15,15,18.60
2016,06,17,15,16,18.40
2016,06,17,15,17,18.30
2016,06,17,15,18,18.20
2016,06,17,15,19,18.10
2016,06,17,15,20,18.00
2016,06,17,15,21,17.90
2016,06,17,15,22,17.80
2016,06,17,15,23,17.80
2016,06,17,15,24,17.70
2016,06,17,15,25,17.70
2016,06,17,15,26,17.70
2016,06,17,15,27,17.70
2016,06,17,15,28,17.80
2016,06,17,15,29,17.80
2016,06,17,15,30,17.80
2016,06,17,15,31,17.80
2016,06,17,15,32,17.80
2016,06,17,15,33,17.80
2016,06,17,15,34,17.80
2016,06,17,15,35,17.80
2016,06,17,15,36,17.80
2016,06,17,15,37,17.90
2016,06,17,15,38,17.90
2016,06,17,15,39,17.90
2016,06,17,15,40,18.10
2016,06,17,15,41,18.20
2016,06,17,15,42,18.30
2016,06,17,15,43,18.30
2016,06,17,15,44,18.40
2016,06,17,15,45,18.40
2016,06,17,15,46,18.50
2016,06,17,15,47,18.50
2016,06,17,15,48,18.50
2016,06,17,15,49,18.50
2016,06,17,15,50,18.60
2016,06,17,15,51,18.70
2016,06,17,15,52,18.70
2016,06,17,15,53,18.70
2016,06,17,15,54,18.80
2016,06,17,15,55,18.80
2016,06,17,15,56,18.70
2016,06,17,15,57,18.70
2016,06,17,15,58,18.60
2016,06,17,15,59,18.50
2016,06,17,16,00,18.40
2016,06,17,16,01,18.40
2016,06,17,16,02,18.30
2016,06,17,16,03,18.20
2016,06,17,16,04,18.20
2016,06,17,16,05,18.20
2016,06,17,16,06,18.20
2016,06,17,16,07,18.20
2016,06,17,16,08,18.30
2016,06,17,16,09,18.30
2016,06,17,16,10,18.40
2016,06,17,16,11,18.30
2016,06,17,16,12,18.40
2016,06,17,16,13,18.40
2016,06,17,16,14,18.40
2016,06,17,16,15,18.30
2016,06,17,16,16,18.30
2016,06,17,16,17,18.30
2016,06,17,16,18,18.30
2016,06,17,16,19,18.20
2016,06,17,16,20,18.10
2016,06,17,16,21,18.00
2016,06,17,16,22,17.90
2016,06,17,16,23,17.90
2016,06,17,16,24,17.80
2016,06,17,16,25,17.70
2016,06,17,16,26,17.70
2016,06,17,16,27,17.70
2016,06,17,16,28,17.70
2016,06,17,16,29,17.70
2016,06,17,16,30,17.80
2016,06,17,16,31,17.80
2016,06,17,16,32,17.80
2016,06,17,16,33,17.90
2016,06,17,16,34,17.90
2016,06,17,16,35,18.00
2016,06,17,16,36,18.00
2016,06,17,16,37,17.90
2016,06,17,16,38,17.90
2016,06,17,16,39,17.90
2016,06,17,16,40,17.90
2016,06,17,16,41,17.80
2016,06,17,16,42,17.80
2016,06,17,16,43,17.80
2016,06,17,16,44,17.80
2016,06,17,16,45,17.80
2016,06,17,16,46,17.80
2016,06,17,16,47,17.70
2016,06,17,16,48,17.70
2016,06,17,16,49,17.70
2016,06,17,16,50,17.70
2016,06,17,16,51,17.70
2016,06,17,16,52,17.70
2016,06,17,16,53,17.80
2016,06,17,16,54,17.90
2016,06,17,16,55,18.00
2016,06,17,16,56,18.00
2016,06,17,16,57,18.10
2016,06,17,16,58,18.10
2016,06,17,16,59,18.10
2016,06,17,17,00,18.10
2016,06,17,17,01,18.10
2016,06,17,17,02,18.10
2016,06,17,17,03,18.00
2016,06,17,17,04,18.00
2016,06,17,17,05,18.00
2016,06,17,17,06,18.00
2016,06,17,17,07,18.00
2016,06,17,17,08,18.10
2016,06,17,17,09,18.10
2016,06,17,17,10,18.20
2016,06,17,17,11,18.20
2016,06,17,17,12,18.30
2016,06,17,17,13,18.30
2016,06,17,17,14,18.30
2016,06,17,17,15,18.30
2016,06,17,17,16,18.20
2016,06,17,17,17,18.20
2016,06,17,17,18,18.20
2016,06,17,17,19,18.20
2016,06,17,17,20,18.10
2016,06,17,17,21,18.10
2016,06,17,17,22,18.00
2016,06,17,17,23,18.00
2016,06,17,17,24,18.00
2016,06,17,17,25,17.90
2016,06,17,17,26,17.90
2016,06,17,17,27,17.90
2016,06,17,17,28,18.00
2016,06,17,17,29,18.00
2016,06,17,17,30,18.10
2016,06,17,17,31,18.10
2016,06,17,17,32,18.10
2016,06,17,17,33,18.10
2016,06,17,17,34,18.20
2016,06,17,17,35,18.20
2016,06,17,17,36,18.20
2016,06,17,17,37,18.30
2016,06,17,17,38,18.30
2016,06,17,17,39,18.30
2016,06,17,17,40,18.40
2016,06,17,17,41,18.40
2016,06,17,17,42,18.40
2016,06,17,17,43,18.50
2016,06,17,17,44,18.50